Terminal Aerodrome Forecast
Issued by NWS Wichita, KS

Home | Current Version | Previous Version | Graphics & Text | Print | Product List | Glossary On
Versions: 1 2 3 4 5 6 7 8 9 10 11 12 13 14 15
000
FTUS43 KICT 012055 AAA
TAFICT
TAF AMD
KICT 012055Z 0121/0218 20013KT P6SM SKC
     FM020200 15007KT P6SM BKN250
     FM020600 17006KT P6SM OVC250
     FM021500 19014KT P6SM OVC100=

USA.gov is the U.S. government's official web portal to all federal, state and local government web resources and services.